{"data":{"norad_id":58777,"epoch":"2026-09-20T22:22:24.465504Z","epoch_age_seconds":115631,"freshness":"FRESH","line1":"1 58777U 24011N   26263.93222761  .00000301  00000+0  21467-4 0  9990","line2":"2 58777  53.1574  95.0949 0001293  86.2510 273.8639 15.31700547151473","mean_motion":15.31700547,"eccentricity":0.0001293,"inclination_deg":53.1574,"raan_deg":95.0949,"arg_perigee_deg":86.251,"mean_anomaly_deg":273.8639,"bstar":2.1467e-5,"rev_number":15147,"period_min":94.013154387155,"perigee_km":469.85280506295,"apogee_km":471.62392423225,"semimajor_km":6848.8753646476,"source":"CELESTRAK","updated_at":"2026-09-21T09:00:33.958879Z"}}